Location: Stoke Bliss
(52.2667°N, 2.5167°W)
Time: 06:32:37
(UTC+00:00)

Envisat - Pass Details

Date: 07 December 2021
Orbit: 764 x 766 km, 98.2° (Epoch: 17 January)

Event Time Altitude Azimuth Distance (km) Brightness Sun altitude
Rises 03:39:22 0° 29° (NNE) 3,246 6.7 -39.2°
Reaches altitude 10° 03:43:03 10° 56° (NE) 2,312 6.1 -38.7°
Maximum altitude 03:45:25 13° 84° (E) 2,092 5.9 -38.3°
Drops below altitude 10° 03:47:46 10° 112° (ESE) 2,303 6.0 -38.0°
Sets 03:51:24 0° 139° (SE) 3,222 6.6 -37.4°
